Radiation Dose at Monitoring Post of Fukushima Daini Nuclear Power Station
Date,Time,MP-1(microSv/h),MP-2(microSv/h),MP-3(microSv/h),MP-4(microSv/h),MP-5(microSv/h),MP-6(microSv/h),MP-7(microSv/h),Wind Direction,Wind Velocity(m/s),Rain
2024/02/01,00:00,0.148,0.132,0.211,0.200,0.207,0.119,0.078,-,CALM,No
2024/02/01,00:10,0.148,0.132,0.211,0.200,0.208,0.118,0.077,northwest,2.4,No
2024/02/01,00:20,0.149,0.132,0.212,0.202,0.207,0.119,0.077,west-northwest,2.3,No
2024/02/01,00:30,0.148,0.133,0.211,0.201,0.208,0.119,0.077,west,1.7,No
2024/02/01,00:40,0.147,0.133,0.212,0.201,0.207,0.119,0.077,west-northwest,2.2,No
2024/02/01,00:50,0.149,0.131,0.211,0.200,0.208,0.119,0.077,north-northwest,1.0,No
2024/02/01,01:00,0.149,0.132,0.211,0.202,0.208,0.119,0.077,-,CALM,No
2024/02/01,01:10,0.149,0.133,0.211,0.201,0.208,0.118,0.078,-,CALM,No
2024/02/01,01:20,0.149,0.132,0.210,0.200,0.207,0.119,0.076,south-southeast,1.0,No
2024/02/01,01:30,0.149,0.132,0.212,0.201,0.208,0.120,0.077,southwest,0.6,No
2024/02/01,01:40,0.149,0.132,0.211,0.201,0.207,0.119,0.078,south-southwest,1.1,No
2024/02/01,01:50,0.148,0.132,0.212,0.202,0.208,0.119,0.078,-,CALM,No
2024/02/01,02:00,0.149,0.133,0.212,0.200,0.207,0.119,0.077,-,CALM,No
2024/02/01,02:10,0.149,0.133,0.211,0.201,0.207,0.119,0.077,southeast,0.8,No
2024/02/01,02:20,0.149,0.133,0.211,0.200,0.208,0.119,0.078,-,CALM,No
2024/02/01,02:30,0.149,0.131,0.212,0.201,0.208,0.118,0.078,north-northeast,0.8,No
2024/02/01,02:40,0.148,0.133,0.212,0.202,0.208,0.119,0.077,northwest,1.3,No
2024/02/01,02:50,0.149,0.132,0.212,0.201,0.209,0.119,0.077,-,CALM,No
2024/02/01,03:00,0.149,0.132,0.211,0.201,0.208,0.119,0.077,south-southeast,1.2,No
2024/02/01,03:10,0.148,0.132,0.211,0.201,0.209,0.119,0.077,southeast,1.6,No
2024/02/01,03:20,0.149,0.133,0.212,0.199,0.207,0.119,0.077,east-southeast,1.8,No
2024/02/01,03:30,0.150,0.133,0.211,0.201,0.207,0.119,0.077,west-southwest,0.9,No
2024/02/01,03:40,0.148,0.132,0.211,0.200,0.208,0.119,0.078,-,CALM,No
2024/02/01,03:50,0.149,0.131,0.211,0.200,0.208,0.120,0.077,east,1.5,No
2024/02/01,04:00,0.149,0.132,0.211,0.201,0.207,0.118,0.077,north-northeast,1.8,No
2024/02/01,04:10,0.148,0.132,0.211,0.200,0.208,0.119,0.077,north,1.9,No
2024/02/01,04:20,0.149,0.132,0.211,0.200,0.207,0.119,0.077,north-northeast,2.3,No
2024/02/01,04:30,0.148,0.131,0.209,0.201,0.208,0.119,0.077,north-northeast,3.1,No
2024/02/01,04:40,0.148,0.131,0.210,0.201,0.208,0.118,0.077,north,4.3,No
2024/02/01,04:50,0.148,0.132,0.211,0.200,0.208,0.118,0.078,north-northeast,4.2,No
2024/02/01,05:00,0.149,0.132,0.211,0.201,0.208,0.119,0.077,north-northeast,4.0,No
2024/02/01,05:10,0.148,0.131,0.211,0.200,0.208,0.119,0.077,north-northeast,3.2,No
2024/02/01,05:20,0.148,0.132,0.210,0.200,0.207,0.118,0.076,north,2.6,No
2024/02/01,05:30,0.150,0.131,0.211,0.201,0.207,0.118,0.077,north-northwest,3.6,No
2024/02/01,05:40,0.148,0.132,0.210,0.201,0.207,0.118,0.077,northwest,2.4,No
2024/02/01,05:50,0.148,0.131,0.210,0.200,0.208,0.119,0.077,north-northwest,3.1,No
2024/02/01,06:00,0.148,0.132,0.210,0.199,0.207,0.119,0.076,north,3.0,No
2024/02/01,06:10,0.149,0.131,0.211,0.201,0.208,0.118,0.077,north-northeast,1.2,No
2024/02/01,06:20,0.148,0.132,0.210,0.200,0.208,0.119,0.077,north-northeast,3.5,No
2024/02/01,06:30,0.149,0.132,0.210,0.201,0.208,0.119,0.077,north,4.4,No
2024/02/01,06:40,0.149,0.132,0.211,0.201,0.206,0.119,0.077,north-northwest,4.0,No
2024/02/01,06:50,0.149,0.131,0.210,0.200,0.208,0.118,0.076,west-northwest,6.9,No
2024/02/01,07:00,0.149,0.132,0.211,0.200,0.208,0.119,0.076,northwest,7.3,No
2024/02/01,07:10,0.147,0.132,0.211,0.201,0.207,0.118,0.077,north-northwest,5.1,No
2024/02/01,07:20,0.149,0.131,0.211,0.201,0.207,0.118,0.077,northwest,4.4,No
2024/02/01,07:30,0.148,0.133,0.211,0.200,0.208,0.118,0.076,north-northwest,3.9,No
2024/02/01,07:40,0.148,0.133,0.211,0.200,0.207,0.118,0.076,north-northwest,4.4,No
2024/02/01,07:50,0.148,0.131,0.210,0.200,0.208,0.118,0.076,north,3.8,No
2024/02/01,08:00,0.150,0.132,0.210,0.200,0.208,0.119,0.077,north-northwest,4.3,No
2024/02/01,08:10,0.148,0.133,0.210,0.201,0.206,0.120,0.077,north-northwest,4.0,No
2024/02/01,08:20,0.147,0.131,0.210,0.199,0.208,0.119,0.076,north,5.0,No
2024/02/01,08:30,0.149,0.132,0.210,0.200,0.206,0.118,0.076,north-northwest,3.6,No
2024/02/01,08:40,0.148,0.132,0.210,0.199,0.208,0.118,0.077,north-northwest,7.3,No
2024/02/01,08:50,0.150,0.132,0.210,0.200,0.208,0.118,0.077,north,6.0,No
2024/02/01,09:00,0.148,0.132,0.211,0.201,0.207,0.119,0.077,north,6.5,No
2024/02/01,09:10,0.148,0.132,0.210,0.200,0.209,0.118,0.077,north,4.4,No
2024/02/01,09:20,0.148,0.132,0.210,0.199,0.208,0.119,0.076,north-northwest,3.7,No
2024/02/01,09:30,0.148,0.132,0.211,0.200,0.209,0.118,0.077,north-northwest,3.6,No
2024/02/01,09:40,0.149,0.132,0.210,0.199,0.207,0.119,0.077,northwest,4.8,No
2024/02/01,09:50,0.148,0.132,0.211,0.201,0.208,0.118,0.076,north-northwest,4.3,No
2024/02/01,10:00,0.148,0.132,0.210,0.200,0.207,0.119,0.076,north-northwest,3.9,No
2024/02/01,10:10,0.149,0.132,0.210,0.200,0.210,0.119,0.077,north-northwest,3.4,No
2024/02/01,10:20,0.148,0.132,0.211,0.199,0.208,0.118,0.077,north,3.8,No
2024/02/01,10:30,0.148,0.131,0.211,0.201,0.208,0.118,0.078,north,2.3,No
2024/02/01,10:40,0.149,0.133,0.212,0.201,0.209,0.119,0.077,north,2.5,No
2024/02/01,10:50,0.150,0.132,0.211,0.201,0.208,0.119,0.078,north-northwest,1.3,No
2024/02/01,11:00,0.149,0.133,0.211,0.201,0.210,0.119,0.077,west-northwest,8.7,No
2024/02/01,11:10,0.149,0.134,0.211,0.200,0.208,0.119,0.077,northwest,7.4,No
2024/02/01,11:20,0.147,0.132,0.211,0.201,0.209,0.119,0.077,west-northwest,8.6,No
2024/02/01,11:30,0.149,0.132,0.210,0.200,0.207,0.120,0.077,northwest,9.8,No
2024/02/01,11:40,0.148,0.131,0.210,0.200,0.207,0.118,0.078,west-northwest,8.7,No
2024/02/01,11:50,0.150,0.132,0.210,0.200,0.207,0.119,0.077,west-northwest,6.6,No
2024/02/01,12:00,0.148,0.131,0.210,0.201,0.206,0.118,0.077,northwest,9.5,No
2024/02/01,12:10,0.149,0.132,0.209,0.200,0.207,0.119,0.078,west,14.8,No
2024/02/01,12:20,0.148,0.132,0.213,0.202,0.208,0.119,0.077,west,13.1,No
2024/02/01,12:30,0.149,0.131,0.209,0.200,0.206,0.119,0.077,west-northwest,10.7,No
2024/02/01,12:40,0.148,0.132,0.212,0.202,0.207,0.119,0.078,northwest,11.7,No
2024/02/01,12:50,0.149,0.132,0.211,0.200,0.208,0.120,0.077,west-northwest,10.0,No
2024/02/01,13:00,0.149,0.133,0.212,0.202,0.208,0.119,0.077,west-northwest,9.7,No
2024/02/01,13:10,0.148,0.133,0.211,0.201,0.209,0.119,0.077,west-northwest,6.7,No
2024/02/01,13:20,0.149,0.132,0.212,0.201,0.208,0.119,0.078,northwest,5.5,No
2024/02/01,13:30,0.149,0.133,0.213,0.202,0.207,0.118,0.076,west-northwest,7.3,No
2024/02/01,13:40,0.149,0.133,0.211,0.200,0.209,0.119,0.077,west-northwest,8.1,No
2024/02/01,13:50,0.149,0.132,0.212,0.203,0.208,0.120,0.078,west-northwest,8.6,No
2024/02/01,14:00,0.149,0.132,0.211,0.201,0.209,0.119,0.077,west-northwest,11.5,No
2024/02/01,14:10,0.147,0.132,0.212,0.201,0.207,0.118,0.077,west-northwest,10.4,No
2024/02/01,14:20,0.148,0.132,0.212,0.200,0.207,0.119,0.077,west-northwest,10.4,No
2024/02/01,14:30,0.149,0.133,0.212,0.201,0.208,0.119,0.078,west,8.8,No
2024/02/01,14:40,0.149,0.133,0.214,0.201,0.208,0.118,0.077,west,5.2,No
2024/02/01,14:50,0.150,0.133,0.213,0.201,0.209,0.118,0.077,west-northwest,9.2,No
2024/02/01,15:00,0.148,0.132,0.213,0.203,0.208,0.119,0.077,west,6.0,No
2024/02/01,15:10,0.149,0.133,0.213,0.201,0.208,0.120,0.077,west,9.8,No
2024/02/01,15:20,0.149,0.133,0.212,0.202,0.209,0.119,0.077,west-northwest,7.9,No
2024/02/01,15:30,0.148,0.133,0.212,0.203,0.208,0.120,0.077,west,7.7,No
2024/02/01,15:40,0.149,0.132,0.211,0.201,0.209,0.118,0.077,west-northwest,6.9,No
2024/02/01,15:50,0.149,0.132,0.212,0.201,0.209,0.118,0.077,west-northwest,4.4,No
2024/02/01,16:00,0.148,0.132,0.212,0.202,0.207,0.120,0.077,west-northwest,6.1,No
2024/02/01,16:10,0.148,0.132,0.212,0.201,0.208,0.119,0.077,northwest,3.0,No
2024/02/01,16:20,0.149,0.132,0.212,0.201,0.209,0.120,0.077,north-northwest,4.1,No
2024/02/01,16:30,0.149,0.133,0.211,0.201,0.208,0.120,0.077,north-northwest,4.3,No
2024/02/01,16:40,0.149,0.133,0.211,0.202,0.208,0.119,0.077,northwest,5.4,No
2024/02/01,16:50,0.150,0.133,0.212,0.201,0.208,0.120,0.077,northwest,5.9,No
2024/02/01,17:00,0.149,0.132,0.212,0.202,0.209,0.120,0.077,west-northwest,5.8,No
2024/02/01,17:10,0.149,0.133,0.212,0.200,0.207,0.120,0.077,northwest,2.9,No
2024/02/01,17:20,0.148,0.133,0.211,0.202,0.208,0.119,0.078,north-northwest,2.6,No
2024/02/01,17:30,0.149,0.133,0.212,0.201,0.208,0.119,0.077,north,4.0,No
2024/02/01,17:40,0.149,0.132,0.213,0.201,0.208,0.118,0.078,north,3.9,No
2024/02/01,17:50,0.149,0.133,0.212,0.201,0.208,0.120,0.077,north,3.5,No
2024/02/01,18:00,0.149,0.133,0.212,0.202,0.207,0.119,0.077,north,4.8,No
2024/02/01,18:10,0.149,0.133,0.211,0.202,0.209,0.119,0.077,north,3.9,No
2024/02/01,18:20,0.150,0.132,0.212,0.202,0.206,0.119,0.077,north,4.3,No
2024/02/01,18:30,0.149,0.132,0.212,0.200,0.207,0.120,0.077,north,4.1,No
2024/02/01,18:40,0.150,0.133,0.212,0.201,0.208,0.120,0.077,north-northwest,3.3,No
2024/02/01,18:50,0.149,0.132,0.212,0.201,0.208,0.119,0.077,north-northwest,2.8,No
2024/02/01,19:00,0.149,0.132,0.213,0.201,0.208,0.119,0.077,north-northwest,2.6,No
2024/02/01,19:10,0.149,0.133,0.212,0.201,0.209,0.119,0.078,west-northwest,3.7,No
2024/02/01,19:20,0.149,0.132,0.212,0.201,0.207,0.119,0.076,north-northwest,2.6,No
2024/02/01,19:30,0.149,0.132,0.212,0.201,0.207,0.120,0.077,north,3.5,No
2024/02/01,19:40,0.149,0.132,0.211,0.202,0.208,0.119,0.076,north,4.1,No
2024/02/01,19:50,0.148,0.132,0.211,0.202,0.208,0.119,0.077,north,4.2,No
2024/02/01,20:00,0.149,0.132,0.212,0.201,0.209,0.119,0.077,north,4.3,No
2024/02/01,20:10,0.149,0.132,0.211,0.203,0.207,0.119,0.077,north,3.9,No
2024/02/01,20:20,0.149,0.132,0.212,0.201,0.207,0.119,0.077,north,3.6,No
2024/02/01,20:30,0.149,0.133,0.211,0.200,0.207,0.119,0.077,north,4.4,No
2024/02/01,20:40,0.149,0.132,0.212,0.201,0.209,0.120,0.077,north-northwest,4.8,No
2024/02/01,20:50,0.148,0.132,0.213,0.200,0.208,0.119,0.077,north-northwest,4.3,No
2024/02/01,21:00,0.149,0.132,0.212,0.201,0.208,0.118,0.077,north-northwest,3.5,No
2024/02/01,21:10,0.149,0.132,0.212,0.202,0.207,0.119,0.076,north,4.2,No
2024/02/01,21:20,0.148,0.133,0.212,0.201,0.207,0.119,0.076,north-northwest,5.0,No
2024/02/01,21:30,0.149,0.132,0.212,0.201,0.207,0.118,0.078,north-northwest,5.3,No
2024/02/01,21:40,0.149,0.133,0.212,0.202,0.207,0.118,0.076,northwest,5.4,No
2024/02/01,21:50,0.149,0.132,0.211,0.201,0.208,0.118,0.078,northwest,4.2,No
2024/02/01,22:00,0.150,0.133,0.212,0.201,0.207,0.119,0.077,northwest,4.3,No
2024/02/01,22:10,0.148,0.132,0.212,0.202,0.207,0.118,0.077,north-northwest,4.3,No
2024/02/01,22:20,0.149,0.132,0.211,0.201,0.208,0.118,0.077,north-northwest,4.2,No
2024/02/01,22:30,0.149,0.132,0.212,0.201,0.207,0.119,0.077,northwest,4.7,No
2024/02/01,22:40,0.149,0.132,0.212,0.201,0.208,0.119,0.077,northwest,5.0,No
2024/02/01,22:50,0.149,0.132,0.211,0.201,0.208,0.118,0.076,northwest,5.6,No
2024/02/01,23:00,0.149,0.132,0.212,0.201,0.208,0.118,0.077,northwest,5.1,No
2024/02/01,23:10,0.148,0.133,0.211,0.201,0.206,0.119,0.076,northwest,5.3,No
2024/02/01,23:20,0.149,0.133,0.212,0.201,0.207,0.118,0.076,northwest,3.3,No
2024/02/01,23:30,0.148,0.132,0.211,0.201,0.208,0.119,0.077,northwest,4.9,No
2024/02/01,23:40,0.148,0.131,0.212,0.201,0.207,0.119,0.077,northwest,4.8,No
2024/02/01,23:50,0.149,0.132,0.211,0.201,0.207,0.119,0.077,northwest,3.5,No
